Fort Campbell, KY

4:14 PM CDT on April 28, 2017 (GMT -0500)
Campbell Army Air Field

Weather History for KHOP - July, 2013

Change the Weather History Date:

Sunday, July 28, 2013

  Actual Average Record
Temperature  
Mean Temperature 66 °F -  
Max Temperature 77 °F 86 °F 100 °F (1997)
Min Temperature 56 °F 67 °F 37 °F (1998)
Cooling Degree Days 1    
Growing Degree Days 16 (Base 50)    
Moisture  
Dew Point 55 °F    
Average Humidity 66    
Maximum Humidity 93    
Minimum Humidity 43    
Precipitation  
Precipitation 0.00 in - - ()
Sea Level Pressure  
Sea Level Pressure 30.05 in    
Wind  
Wind Speed 5 mph (NW)    
Max Wind Speed 9 mph    
Max Gust Speed -    
Visibility 10 miles    
Events      
Averages and records for this station are not official NWS values.
T = Trace of Precipitation, MM = Missing Value Source: NWS Daily Summary

Daily Weather History Graph

Daily Weather History Graph

Search for Another Location

Airport or City:

Trip Planner

Search our weather history database for the weather conditions in past years. The results will help you decide how hot, cold, wet, or windy it might be!

Date:

Astronomy

Jul. 28, 2013 Rise Set
Actual Time 5:52 AM CDT 7:59 PM CDT
Civil Twilight 5:24 AM CDT 8:28 PM CDT
Nautical Twilight 4:48 AM CDT 9:03 PM CDT
Astronomical Twilight 4:10 AM CDT 9:41 PM CDT
Moon 11:34 PM CDT 12:22 PM CDT
Length of Visible Light 15h 04m
Length of Day
14h 06m
Waning Gibbous, 60% of the Moon is Illuminated
Jul 28
Waning Gibbous
Jul 29
Last Quarter
Aug 6
New
Aug 14
First Quarter
Aug 20
Full

Hourly Weather History & Observations

Time (CDT) Temp. Dew Point Humidity Pressure Visibility Wind Dir Wind Speed Gust Speed Precip Events Conditions
12:58 AM 64.6 °F 57.0 °F 76% 30.00 in 10.0 mi North 6.9 mph - N/A   Clear
1:58 AM 59.5 °F 56.1 °F 88% 30.00 in 10.0 mi NNE 5.8 mph - N/A   Clear
2:58 AM 59.4 °F 55.2 °F 86% 30.00 in 10.0 mi NE 2.3 mph - N/A   Clear
3:58 AM 59.2 °F 54.7 °F 85% 30.01 in 10.0 mi North 2.3 mph - N/A   Mostly Cloudy
4:58 AM 57.7 °F 54.5 °F 89% 30.02 in 10.0 mi North 2.3 mph - N/A   Clear
5:58 AM 56.3 °F 54.3 °F 93% 30.03 in 10.0 mi NE 2.3 mph - N/A   Clear
6:58 AM 58.6 °F 55.6 °F 90% 30.04 in 10.0 mi ENE 2.3 mph - N/A   Clear
7:58 AM 65.1 °F 54.7 °F 69% 30.05 in 10.0 mi East 6.9 mph - N/A   Clear
8:58 AM 69.6 °F 50.5 °F 51% 30.06 in 10.0 mi ESE 6.9 mph - N/A   Clear
9:58 AM 71.8 °F 49.3 °F 45% 30.06 in 10.0 mi NE 8.1 mph - N/A   Partly Cloudy
10:58 AM 72.0 °F 49.8 °F 46% 30.07 in 10.0 mi NW 5.8 mph - N/A   Partly Cloudy
11:58 AM 73.8 °F 51.1 °F 45% 30.07 in 10.0 mi Variable 4.6 mph - N/A   Partly Cloudy
12:58 PM 73.9 °F 50.4 °F 43% 30.06 in 10.0 mi NW 5.8 mph - N/A   Scattered Clouds
1:58 PM 74.8 °F 50.9 °F 43% 30.05 in 10.0 mi Variable 4.6 mph - N/A   Scattered Clouds
2:58 PM 74.3 °F 50.7 °F 43% 30.04 in 10.0 mi Variable 3.5 mph - N/A   Scattered Clouds
3:58 PM 76.5 °F 53.2 °F 44% 30.04 in 10.0 mi West 8.1 mph - N/A   Clear
4:58 PM 75.7 °F 54.9 °F 48% 30.04 in 10.0 mi SW 9.2 mph - N/A   Clear
5:58 PM 75.0 °F 56.7 °F 53% 30.05 in 10.0 mi WSW 9.2 mph - N/A   Clear
6:58 PM 71.1 °F 57.6 °F 62% 30.05 in 10.0 mi WSW 4.6 mph - N/A   Clear
7:58 PM 69.8 °F 57.7 °F 65% 30.06 in 10.0 mi WNW 3.5 mph - N/A   Clear
8:58 PM 67.5 °F 59.0 °F 74% 30.07 in 10.0 mi SSW 4.6 mph - N/A   Clear
9:58 PM 65.1 °F 60.1 °F 84% 30.09 in 10.0 mi WSW 3.5 mph - N/A   Clear
10:58 PM 64.8 °F 59.0 °F 82% 30.09 in 10.0 mi SW 4.6 mph - N/A   Clear
11:58 PM 63.5 °F 59.0 °F 85% 30.10 in 10.0 mi SW 3.5 mph - N/A   Clear